Simultaneous Nadir Overpasses (SNOs) Predictions

Prediction of SNOs between NOAA-19 and TERRA Satellite Orbit:

Table of predicted SNOs for the next 14.0 days since TLE Epoch: 11/13/2021
Index Date (NOAA-19) Time (NOAA-19) Lat,Lon (NOAA-19) SZA (NOAA-19 ) Date (TERRA) Time (TERRA) Lat,Lon (TERRA) SZA (TERRA ) Distance(km) Time Diff (sec)
1 11/15/2021 05:39:56 80.51, 130.07 101.03 11/15/2021 05:40:22 80.53, 129.91 101.03 3.24 26
2 11/15/2021 06:30:57 -80.50, -62.49 78.95 11/15/2021 06:29:49 -80.52, -62.50 78.97 1.89 68
3 11/17/2021 11:13:04 -80.53,-133.57 78.45 11/17/2021 11:14:04 -80.52,-133.61 78.45 1.95 60
4 11/17/2021 12:04:01 80.52, 34.04 101.58 11/17/2021 12:03:30 80.52, 34.06 101.57 0.40 31
5 11/19/2021 17:37:08 -80.53, 130.58 77.92 11/19/2021 17:37:11 -80.51, 130.53 77.94 2.26 3
6 11/21/2021 23:10:10 80.53,-132.64 102.57 11/21/2021 23:10:51 80.53,-132.67 102.58 0.70 41
7 11/22/2021 00:01:12 -80.51, 35.04 77.40 11/22/2021 00:00:18 -80.53, 34.97 77.42 2.79 54
8 11/24/2021 04:43:19 -80.54, -36.12 77.00 11/24/2021 04:44:33 -80.52, -36.21 77.00 2.97 74
9 11/24/2021 05:34:15 80.54, 131.29 103.02 11/24/2021 05:33:59 80.52, 131.41 103.01 2.86 16
10 11/26/2021 11:07:23 -80.53,-131.70 76.55 11/26/2021 11:07:40 -80.54,-131.83 76.55 2.64 17



Historial Predications of SNOs between NOAA-19 and TERRA
